Location: Guferjoch
(46.7462°N, 8.4506°E)
Time: 23:50:53
(UTC+00:00)

Okean 1 - Pass Details

Date: 14 July 2020
Orbit: 538 x 555 km, 82.5° (Epoch: 14 August)

Event Time Altitude Azimuth Distance (km) Brightness Sun altitude
Rises 00:16:27 0° 354° (N) 2,708 8.2 -20.9°
Reaches altitude 10° 00:18:39 10° 359° (N) 1,812 7.1 -20.8°
Maximum altitude 00:22:35 57° 79° (ENE) 644 3.7 -20.7°
Enters shadow 00:23:30 44° 129° (SE) 759 3.8 -20.6°
